User: anonymous
Location: Unspecified
(0.0000°N, 0.0000°E)
Time: 07:24:19
(UTC+00:00)
Language:

CANX 3B (BRITE-ASRA) - Orbit

View from above orbital plane
View from above orbital plane
View from above satellite
View from above satellite

Ground track
Ground track

The orbit data is extracted from the following two-line orbital elements,

1 39091U 13009F   14211.52670365 -.00000080  00000-0 -12623-4 0  4250
2 39091 098.6166 046.0387 0010040 183.2472 176.8685 14.34706862 74542
Epoch (UTC): 30 July 2014 12:38:27
Eccentricity: 0.0010040
inclination: 98.6166°
perigee height: 769 km
apogee height: 783 km
right ascension of ascending node: 46.0387°
argument of perigee: 183.2472°
revolutions per day: 14.34706862
mean anomaly at epoch: 176.8685°
orbit number at epoch: 7454

The dashed part of the orbit path shows where the satellite is in the earth's shadow,  

DLR